TimeCDT,TemperatureF,Dew PointF,Humidity,Sea Level PressureIn,VisibilityMPH,Wind Direction,Wind SpeedMPH,Gust SpeedMPH,PrecipitationIn,Events,Conditions,WindDirDegrees,DateUTC
12:15 AM,76.3,64.9,68,30.02,10.0,SSW,3.5,-,N/A,,Clear,200,2013-07-30 05:15:00
12:35 AM,75.2,65.3,71,30.02,10.0,South,4.6,-,N/A,,Clear,170,2013-07-30 05:35:00
12:55 AM,74.8,65.1,72,30.01,10.0,South,3.5,-,N/A,,Clear,170,2013-07-30 05:55:00
1:15 AM,73.9,65.1,74,30.01,10.0,Calm,Calm,-,N/A,,Clear,0,2013-07-30 06:15:00
1:35 AM,73.6,65.1,75,30.01,10.0,Calm,Calm,-,N/A,,Clear,0,2013-07-30 06:35:00
1:55 AM,73.4,64.8,74,30.01,10.0,Calm,Calm,-,N/A,,Clear,0,2013-07-30 06:55:00
2:15 AM,73.4,64.8,74,30.00,5.0,Calm,Calm,-,N/A,,Haze,0,2013-07-30 07:15:00
2:35 AM,73.6,64.6,73,30.00,10.0,Calm,Calm,-,N/A,,Clear,0,2013-07-30 07:35:00
2:55 AM,72.3,65.3,78,30.01,10.0,Calm,Calm,-,N/A,,Clear,0,2013-07-30 07:55:00
3:15 AM,71.6,65.5,81,30.01,10.0,NNW,3.5,-,N/A,,Clear,330,2013-07-30 08:15:00
3:35 AM,71.6,65.3,80,30.02,10.0,NNW,3.5,-,N/A,,Clear,330,2013-07-30 08:35:00
3:55 AM,72.0,65.3,79,30.02,10.0,Calm,Calm,-,N/A,,Clear,0,2013-07-30 08:55:00
4:15 AM,71.6,64.6,78,30.02,10.0,Calm,Calm,-,N/A,,Clear,0,2013-07-30 09:15:00
4:35 AM,72.0,64.4,77,30.03,10.0,Calm,Calm,-,N/A,,Clear,0,2013-07-30 09:35:00
4:55 AM,71.1,64.6,80,30.03,10.0,Calm,Calm,-,N/A,,Clear,0,2013-07-30 09:55:00
5:15 AM,71.2,64.4,79,30.04,10.0,Calm,Calm,-,N/A,,Clear,0,2013-07-30 10:15:00
5:35 AM,71.6,63.7,76,30.04,10.0,East,3.5,-,N/A,,Clear,80,2013-07-30 10:35:00
5:55 AM,70.7,64.0,79,30.04,10.0,East,3.5,-,N/A,,Clear,90,2013-07-30 10:55:00
6:15 AM,69.4,63.9,82,30.04,10.0,East,4.6,-,N/A,,Clear,90,2013-07-30 11:15:00
6:35 AM,69.3,64.4,84,30.05,10.0,East,3.5,-,N/A,,Clear,80,2013-07-30 11:35:00
6:55 AM,68.4,64.2,87,30.05,10.0,Calm,Calm,-,N/A,,Clear,0,2013-07-30 11:55:00
7:15 AM,67.6,64.0,88,30.06,10.0,SSE,4.6,-,N/A,,Clear,160,2013-07-30 12:15:00
7:35 AM,68.2,64.6,88,30.07,10.0,SSW,3.5,-,N/A,,Clear,200,2013-07-30 12:35:00
7:55 AM,68.9,64.8,87,30.07,10.0,Calm,Calm,-,N/A,,Clear,0,2013-07-30 12:55:00
8:15 AM,70.7,65.3,83,30.07,10.0,NW,3.5,-,N/A,,Clear,320,2013-07-30 13:15:00
8:35 AM,73.0,65.7,78,30.07,10.0,NW,3.5,-,N/A,,Clear,310,2013-07-30 13:35:00
8:55 AM,73.6,66.2,78,30.09,10.0,West,3.5,-,N/A,,Clear,280,2013-07-30 13:55:00
9:15 AM,75.4,66.4,73,30.09,10.0,WSW,4.6,-,N/A,,Clear,250,2013-07-30 14:15:00
9:35 AM,77.0,66.9,71,30.09,10.0,WSW,4.6,-,N/A,,Clear,240,2013-07-30 14:35:00
9:55 AM,79.0,66.4,65,30.10,10.0,West,4.6,-,N/A,,Clear,270,2013-07-30 14:55:00
10:15 AM,82.8,64.9,55,30.09,10.0,WSW,6.9,-,N/A,,Clear,250,2013-07-30 15:15:00
10:35 AM,86.0,63.9,47,30.10,10.0,West,10.4,-,N/A,,Clear,270,2013-07-30 15:35:00
10:55 AM,87.8,61.5,41,30.10,10.0,WNW,18.4,-,N/A,,Clear,300,2013-07-30 15:55:00
11:15 AM,87.3,62.6,44,30.10,10.0,NW,16.1,19.6,N/A,,Clear,310,2013-07-30 16:15:00
11:55 AM,89.2,62.8,41,30.10,10.0,WNW,16.1,20.7,N/A,,Clear,300,2013-07-30 16:55:00
12:15 PM,89.6,62.4,40,30.10,10.0,WNW,16.1,19.6,N/A,,Clear,300,2013-07-30 17:15:00
12:35 PM,91.0,63.1,39,30.10,10.0,NW,13.8,-,N/A,,Clear,310,2013-07-30 17:35:00
1:15 PM,93.6,61.5,34,30.09,10.0,NW,11.5,17.3,N/A,,Clear,310,2013-07-30 18:15:00
1:35 PM,93.6,61.2,34,30.07,10.0,WNW,10.4,16.1,N/A,,Clear,290,2013-07-30 18:35:00
1:55 PM,95.2,59.2,30,30.07,10.0,NW,12.7,19.6,N/A,,Clear,320,2013-07-30 18:55:00
2:15 PM,95.9,60.4,31,30.06,10.0,WNW,10.4,-,N/A,,Clear,300,2013-07-30 19:15:00
2:35 PM,97.2,60.1,29,30.05,10.0,WNW,9.2,-,N/A,,Clear,290,2013-07-30 19:35:00
2:55 PM,97.3,60.1,29,30.04,10.0,West,8.1,16.1,N/A,,Clear,280,2013-07-30 19:55:00
3:15 PM,98.4,60.1,28,30.03,10.0,North,6.9,-,N/A,,Clear,350,2013-07-30 20:15:00
3:35 PM,99.0,61.7,29,30.03,10.0,WNW,8.1,-,N/A,,Clear,300,2013-07-30 20:35:00
3:55 PM,99.9,61.9,29,30.02,10.0,WNW,11.5,-,N/A,,Clear,300,2013-07-30 20:55:00
4:15 PM,99.3,62.2,29,30.01,10.0,Calm,Calm,-,N/A,,Clear,0,2013-07-30 21:15:00
4:35 PM,99.0,62.4,30,30.00,10.0,West,4.6,-,N/A,,Clear,260,2013-07-30 21:35:00
4:55 PM,99.9,62.8,29,29.99,10.0,WNW,6.9,-,N/A,,Clear,300,2013-07-30 21:55:00
5:15 PM,99.3,62.2,29,29.98,10.0,SW,4.6,-,N/A,Thunderstorm,Clear,220,2013-07-30 22:15:00
5:35 PM,98.4,62.4,30,29.99,10.0,SSW,10.4,-,N/A,Thunderstorm,Thunderstorm,210,2013-07-30 22:35:00
5:55 PM,95.5,61.0,32,30.00,10.0,WNW,12.7,17.3,N/A,Thunderstorm,Clear,290,2013-07-30 22:55:00
6:15 PM,87.4,59.2,38,30.01,10.0,NW,24.2,34.5,N/A,Thunderstorm,Thunderstorm,310,2013-07-30 23:15:00
6:35 PM,89.8,56.1,32,30.02,10.0,NNW,15.0,24.2,N/A,,Clear,330,2013-07-30 23:35:00
6:55 PM,84.6,65.8,53,30.01,10.0,NNE,8.1,-,N/A,Rain,Light Rain,20,2013-07-30 23:55:00
7:15 PM,84.2,63.1,49,30.01,10.0,NE,11.5,-,N/A,,Scattered Clouds,40,2013-07-31 00:15:00
7:35 PM,84.4,63.9,50,30.02,10.0,North,15.0,19.6,N/A,Thunderstorm,Thunderstorm,10,2013-07-31 00:35:00
7:55 PM,85.3,59.9,42,30.03,10.0,NNW,18.4,25.3,N/A,Thunderstorm,Scattered Clouds,340,2013-07-31 00:55:00
8:15 PM,88.5,51.4,28,30.03,10.0,NNW,24.2,31.1,N/A,Rain,Light Rain,340,2013-07-31 01:15:00
8:35 PM,81.5,60.3,48,30.02,10.0,WNW,16.1,-,N/A,Rain,Light Rain,300,2013-07-31 01:35:00
8:55 PM,84.9,55.4,36,30.02,10.0,West,13.8,-,N/A,,Clear,260,2013-07-31 01:55:00
9:15 PM,86.0,53.4,33,30.05,10.0,Calm,Calm,-,N/A,Thunderstorm,Clear,0,2013-07-31 02:15:00
9:35 PM,83.8,56.3,39,30.05,10.0,SSE,4.6,-,N/A,,Clear,160,2013-07-31 02:35:00
9:55 PM,84.4,56.7,39,30.05,10.0,Calm,Calm,-,N/A,,Clear,0,2013-07-31 02:55:00
10:15 PM,83.3,60.1,45,30.05,10.0,Calm,Calm,-,N/A,,Clear,0,2013-07-31 03:15:00
10:35 PM,81.7,62.1,51,30.05,10.0,SW,4.6,-,N/A,,Clear,230,2013-07-31 03:35:00
10:55 PM,80.4,63.5,56,30.04,10.0,WSW,5.8,-,N/A,,Clear,250,2013-07-31 03:55:00
11:15 PM,79.3,64.0,59,30.05,10.0,Calm,Calm,-,N/A,,Clear,0,2013-07-31 04:15:00
11:35 PM,79.5,64.0,59,30.06,10.0,Calm,Calm,-,N/A,,Clear,0,2013-07-31 04:35:00
11:55 PM,78.8,64.4,61,30.05,10.0,NNW,4.6,-,N/A,,Clear,330,2013-07-31 04:55:00